This is the latest recevied weather packets stored in our database for station/object VK3VJP-13. If no packets are shown the sender has not sent any weather packets the latest 10 day(s).
| Time | Temp. | Humidity | Pressure | Rain* | Wind** | Luminosity | Snow |
|---|---|---|---|---|---|---|---|
| 1778209677 | 11.67° C | 89% | 1023.4 hPa | 0 mm | - | - | - |
| 1778209377 | 11.67° C | 89% | 1023.7 hPa | 0 mm | - | - | - |
| 1778209077 | 11.67° C | 89% | 1023.8 hPa | 0 mm | - | - | - |
| 1778208777 | 11.67° C | 90% | 1023.8 hPa | 0 mm | - | - | - |
| 1778208477 | 11.67° C | 91% | 1024 hPa | 0 mm | - | - | - |
| 1778208177 | 11.11° C | 91% | 1023.9 hPa | 0 mm | - | - | - |
| 1778207877 | 11.11° C | 91% | 1024.1 hPa | 0 mm | - | - | - |
| 1778207577 | 11.67° C | 92% | 1023.9 hPa | 0 mm | - | - | - |
| 1778207277 | 11.11° C | 95% | 1024 hPa | 0 mm | - | - | - |
| 1778206977 | 11.11° C | 93% | 1024 hPa | 0 mm | - | - | - |
| 1778206677 | 11.11° C | 95% | 1024.1 hPa | 0 mm | - | - | - |
| 1778206377 | 11.11° C | 94% | 1024.2 hPa | 0 mm | - | - | - |
| 1778205777 | 11.11° C | 94% | 1024.2 hPa | 0 mm | - | - | - |
| 1778205477 | 11.11° C | 94% | 1024.2 hPa | 0 mm | - | - | - |
| 1778205177 | 11.11° C | 95% | 1024.1 hPa | 0.25 mm | - | - | - |
| 1778204877 | 11.11° C | 96% | 1024.2 hPa | 0.25 mm | - | - | - |
| 1778204577 | 10.56° C | 96% | 1024.3 hPa | 0.25 mm | - | - | - |
| 1778204277 | 10.56° C | 96% | 1024.4 hPa | 0.25 mm | - | - | - |
| 1778203977 | 10.56° C | 96% | 1024.4 hPa | 0.25 mm | - | - | - |
| 1778203677 | 10.56° C | 96% | 1024.5 hPa | 0.25 mm | - | - | - |
| 1778203377 | 10.56° C | 96% | 1024.5 hPa | 0.25 mm | - | - | - |
| 1778203077 | 10.56° C | 96% | 1024.5 hPa | 0.25 mm | - | - | - |
| 1778202777 | 10° C | 96% | 1024.3 hPa | 0.25 mm | - | - | - |
| 1778202477 | 10° C | 96% | 1024.2 hPa | 0.25 mm | - | - | - |
| 1778202177 | 10° C | 96% | 1024.3 hPa | 0.25 mm | - | - | - |
* Rain latest hour (hover to see other rain measurements)
** Current wind speed in m/s (hover to see current wind gust speed)